Temp
2 2 2 3 2 4 4 5 5 6 7 6 7 8 8 8 8 8 8 8 8 8 8 8 8 9 9 9 9 10 9 9 9 9 9 8 8 7 7 6 6 6 6 5
2 1 2 2 3 4 3 4 5 6 6 7 7 7 7 7 8 8 8 8 8 8 8 8 9 9 9 9 9 9 9 8 8 8 8 8 8 8 7 7 7 7 7 6
1 2 2 2 3 3 3 4 5 5 6 6 6 7 8 8 8 8 8 8 8 7 8 8 8 8 8 8 8 8 8 8 8 8 8 8 8 8 8 7 7 7 6 6
2 2 3 2 2 3 3 5 5 5 4 5 6 5 7 8 7 7 8 8 7 7 7 8 8 8 8 7 7 7 7 7 7 7 7 8 7 7 7 6 6 5 5 5
1 2 2 2 3 3 4 5 5 5 5 5 6 6 7 8 7 8 8 8 8 8 7 8 8 7 7 7 6 6 6 6 6 6 7 6 6 5 5 5 4 4 4 4
1 2 3 4 3 4 4 4 4 5 5 3 6 6 8 8 10 8 8 8 8 7 7 7 7 7 6 6 6 6 6 6 6 6 5 5 5 4 4 4 3 3 3 3
1 2 2 2 3 4 4 4 4 3 3 2 6 5 8 9 9 9 9 8 8 8 7 7 6 6 6 6 5 5 5 5 5 5 4 4 4 3 3 3 3 3 3 2
1 1 2 2 3 4 4 5 5 3 1 2 5 6 9 9 10 9 8 7 7 7 7 6 6 5 5 5 5 4 4 4 4 4 3 3 2 2 2 2 2 1 1 1
2 2 3 4 4 4 4 5 5 5 4 3 6 8 9 9 9 10 8 8 7 6 6 6 5 5 5 5 4 3 3 3 3 3 2 2 2 1 1 1 1 0 0 0
3 3 3 4 4 4 5 5 5 5 3 3 4 6 9 9 9 9 9 8 7 6 6 5 5 5 4 4 3 3 3 3 2 2 2 1 1 0 -0 -0 -1 -1 -0 -0
4 4 3 3 4 4 4 5 5 5 5 2 2 6 8 8 9 9 8 7 6 6 5 5 5 4 4 3 2 2 2 2 1 1 0 -0 -0 -1 -1 -1 -1 -1 -1 -1
4 4 3 3 4 4 5 5 5 6 4 5 4 6 8 8 8 8 7 6 5 5 5 4 4 4 3 2 2 2 1 1 0 -0 -0 -1 -1 -1 -2 -2 -2 -2 -2 -2
4 4 3 3 4 4 4 5 5 5 5 5 4 6 7 8 8 7 5 5 4 4 4 4 3 2 2 1 1 1 -0 -1 -1 -1 -1 -2 -2 -2 -2 -2 -2 -3 -3 -3
5 4 4 3 4 4 4 5 5 5 5 5 6 7 6 6 6 5 5 4 4 4 4 3 2 2 1 0 -0 -1 -1 -1 -2 -2 -2 -2 -2 -2 -3 -3 -4 -4 -4 -4
5 5 5 5 5 6 6 6 5 5 5 5 6 6 6 5 4 5 5 4 4 3 3 2 1 1 0 -0 -0 -1 -2 -2 -2 -2 -2 -2 -3 -4 -4 -4 -5 -5 -5 -5
5 5 5 5 5 5 5 5 5 5 5 5 5 5 5 5 4 4 4 3 3 3 2 2 1 0 -0 -1 -2 -2 -2 -2 -2 -3 -3 -3 -4 -4 -5 -6 -6 -6 -6 -6
5 5 5 4 4 4 4 5 5 5 5 5 4 5 4 4 4 3 3 3 3 2 1 1 0 -1 -1 -1 -2 -2 -3 -3 -3 -4 -4 -5 -5 -6 -6 -6 -6 -6 -6 -6
5 5 5 5 4 2 5 5 5 4 5 4 3 4 4 3 3 3 2 2 1 1 1 0 -0 -1 -1 -3 -3 -3 -4 -4 -4 -4 -5 -6 -6 -6 -7 -7 -7 -7 -7 -7
5 4 4 4 3 4 4 4 4 4 3 4 3 3 3 3 3 2 2 2 2 1 0 -0 -1 -2 -3 -3 -4 -4 -4 -4 -5 -6 -6 -7 -7 -7 -7 -8 -8 -8 -8 -8
4 4 4 2 3 2 3 3 3 3 3 3 3 2 2 2 2 2 2 1 1 -0 -2 -3 -3 -4 -4 -4 -5 -5 -5 -6 -6 -6 -7 -8 -8 -8 -8 -8 -8 -8 -9 -9
2 2 2 2 2 3 3 3 3 2 3 3 2 2 2 2 2 1 1 0 -1 -1 -2 -4 -5 -5 -6 -6 -7 -6 -6 -6 -7 -8 -8 -8 -8 -8 -9 -9 -9 -9 -10 -10
3 2 1 1 1 1 2 2 2 2 2 2 1 2 1 1 1 0 -0 -1 -1 -2 -3 -4 -5 -5 -7 -7 -7 -7 -6 -7 -8 -8 -8 -8 -9 -9 -9 -9 -10 -11 -11 -12
2 2 3 2 2 2 2 2 2 2 2 1 1 1 0 -0 -0 -0 -1 -1 -2 -3 -4 -5 -5 -5 -5 -6 -6 -7 -8 -8 -8 -8 -9 -9 -9 -10 -10 -11 -11 -12 -12 -13
2 1 1 2 2 2 1 1 0 1 0 0 -0 -0 -0 -0 -1 -1 -1 -2 -3 -4 -4 -5 -5 -6 -6 -7 -8 -8 -8 -8 -8 -9 -9 -9 -10 -10 -11 -12 -12 -13 -13 -13
1 1 1 1 1 1 1 0 0 0 0 -0 -0 -0 -1 -1 -1 -2 -2 -3 -3 -4 -5 -6 -6 -6 -7 -8 -8 -8 -8 -9 -9 -9 -10 -11 -11 -11 -12 -12 -13 -13 -14 -14
0 0 0 1 1 0 0 0 0 -0 -0 -1 -1 -1 -1 -2 -2 -2 -3 -4 -4 -5 -6 -6 -7 -8 -8 -8 -8 -9 -9 -10 -10 -11 -11 -11 -12 -12 -12 -12 -13 -14 -14 -15
Height
3073 3083 3085 3094 3103 3108 3113 3115 3116 3116 3117 3113 3112 3110 3110 3111 3110 3111 3111 3113 3113 3112 3112 3111 3111 3110 3111 3111 3110 3109 3107 3106 3104 3103 3102 3100 3099 3097 3095 3093 3091 3089 3086 3084
3078 3079 3087 3096 3102 3107 3110 3112 3114 3115 3114 3112 3109 3107 3107 3106 3105 3107 3108 3108 3108 3108 3108 3108 3108 3108 3108 3107 3106 3105 3103 3102 3101 3100 3099 3097 3096 3094 3092 3089 3086 3083 3081 3078
3073 3079 3088 3092 3099 3103 3106 3109 3111 3114 3112 3111 3108 3101 3100 3101 3101 3102 3103 3103 3104 3105 3105 3105 3106 3105 3105 3104 3104 3103 3102 3100 3099 3098 3096 3094 3092 3090 3088 3085 3082 3079 3075 3072
3076 3080 3084 3088 3095 3101 3104 3108 3111 3112 3112 3109 3108 3100 3096 3095 3096 3097 3098 3099 3101 3102 3104 3104 3104 3104 3103 3103 3103 3101 3100 3099 3097 3094 3092 3089 3087 3085 3082 3080 3077 3074 3070 3067
3066 3071 3081 3086 3090 3099 3102 3107 3110 3110 3109 3107 3106 3106 3091 3091 3091 3093 3095 3097 3099 3101 3103 3103 3103 3102 3102 3100 3100 3099 3096 3094 3092 3089 3087 3084 3081 3079 3077 3074 3072 3068 3064 3061
3070 3077 3082 3085 3091 3097 3103 3105 3108 3108 3108 3103 3101 3103 3087 3086 3086 3090 3093 3095 3097 3100 3102 3102 3101 3101 3100 3099 3098 3097 3094 3091 3088 3085 3082 3079 3077 3074 3072 3069 3066 3063 3059 3055
3069 3076 3078 3084 3089 3094 3099 3103 3106 3108 3106 3100 3096 3095 3085 3086 3086 3088 3091 3094 3096 3098 3099 3099 3099 3099 3098 3097 3095 3093 3090 3087 3084 3081 3078 3075 3072 3070 3067 3064 3061 3058 3054 3051
3065 3068 3072 3077 3083 3088 3093 3098 3099 3103 3103 3096 3093 3088 3082 3083 3083 3085 3088 3092 3094 3096 3097 3097 3097 3096 3095 3094 3092 3089 3085 3082 3079 3076 3074 3071 3068 3065 3061 3057 3054 3049 3045 3040
3061 3066 3071 3076 3081 3088 3089 3092 3098 3097 3096 3096 3088 3084 3081 3081 3082 3082 3085 3089 3092 3094 3094 3094 3093 3093 3092 3090 3087 3085 3081 3078 3075 3071 3068 3065 3062 3060 3056 3052 3046 3041 3036 3031
3058 3064 3068 3074 3080 3084 3086 3092 3095 3097 3097 3094 3084 3081 3078 3079 3080 3081 3083 3086 3090 3091 3091 3091 3091 3091 3089 3086 3083 3080 3076 3073 3070 3067 3064 3060 3057 3052 3048 3043 3039 3034 3028 3022
3055 3060 3068 3073 3074 3077 3082 3084 3088 3092 3091 3090 3089 3080 3078 3077 3078 3081 3083 3086 3089 3088 3088 3088 3088 3087 3084 3081 3078 3075 3072 3068 3064 3061 3057 3053 3049 3045 3040 3035 3030 3023 3017 3011
3054 3059 3063 3068 3072 3076 3079 3082 3085 3085 3087 3086 3085 3080 3078 3078 3077 3080 3083 3086 3086 3086 3085 3085 3084 3082 3079 3076 3073 3069 3066 3062 3058 3055 3051 3047 3042 3037 3032 3026 3020 3013 3007 3001
3053 3055 3062 3068 3072 3071 3074 3077 3080 3081 3082 3082 3083 3079 3077 3077 3078 3079 3081 3083 3083 3082 3082 3080 3078 3076 3074 3070 3067 3064 3060 3056 3052 3048 3043 3039 3034 3028 3023 3017 3010 3003 2997 2991
3053 3053 3055 3057 3060 3065 3067 3070 3074 3077 3077 3078 3076 3078 3078 3076 3077 3078 3080 3080 3079 3077 3076 3075 3073 3071 3068 3064 3061 3056 3052 3048 3045 3040 3036 3031 3025 3018 3011 3005 2999 2993 2987 2981
3051 3052 3054 3056 3059 3061 3063 3065 3068 3069 3072 3073 3073 3074 3076 3076 3075 3076 3075 3074 3073 3071 3071 3069 3067 3065 3062 3058 3054 3050 3045 3041 3037 3033 3028 3022 3016 3008 3001 2996 2990 2985 2979 2972
3049 3051 3053 3054 3055 3057 3058 3060 3063 3066 3067 3068 3069 3069 3071 3070 3070 3070 3070 3069 3068 3067 3066 3064 3062 3059 3055 3051 3047 3042 3038 3033 3029 3025 3019 3013 3005 2999 2993 2986 2981 2976 2970 2963
3048 3049 3051 3052 3053 3055 3057 3055 3058 3060 3061 3063 3064 3066 3065 3065 3066 3066 3065 3064 3063 3061 3060 3058 3055 3051 3047 3043 3040 3036 3031 3026 3021 3015 3009 3002 2995 2990 2984 2978 2972 2967 2960 2953
3045 3047 3049 3050 3052 3056 3050 3051 3053 3054 3054 3056 3057 3059 3060 3060 3060 3060 3059 3058 3057 3055 3053 3050 3047 3044 3041 3037 3032 3027 3022 3016 3011 3005 2999 2992 2986 2981 2975 2970 2964 2958 2950 2942
3044 3046 3048 3048 3047 3047 3046 3047 3050 3049 3052 3052 3053 3055 3055 3055 3056 3055 3054 3052 3050 3049 3046 3043 3040 3037 3033 3028 3023 3019 3014 3008 3001 2995 2990 2984 2978 2973 2968 2962 2955 2947 2939 2931
3039 3042 3044 3043 3044 3044 3042 3043 3045 3046 3048 3048 3049 3050 3051 3051 3050 3050 3048 3047 3044 3041 3037 3034 3031 3028 3024 3020 3015 3010 3004 2998 2993 2988 2982 2976 2970 2965 2959 2951 2944 2937 2927 2919
3036 3038 3039 3040 3041 3040 3040 3041 3042 3046 3047 3044 3045 3046 3046 3046 3046 3044 3041 3037 3034 3032 3029 3026 3022 3019 3015 3010 3005 2999 2994 2989 2985 2980 2974 2969 2962 2956 2949 2942 2933 2926 2917 2908
3031 3033 3034 3037 3038 3038 3035 3037 3041 3040 3040 3041 3042 3042 3043 3042 3038 3035 3032 3029 3025 3023 3020 3017 3014 3010 3005 3000 2994 2990 2985 2981 2977 2972 2966 2960 2954 2947 2940 2932 2925 2916 2906 2897
3030 3030 3031 3034 3033 3032 3032 3034 3035 3036 3037 3038 3038 3036 3034 3032 3029 3026 3024 3021 3018 3016 3013 3009 3005 3001 2996 2991 2986 2982 2978 2973 2969 2964 2958 2952 2945 2939 2932 2923 2914 2904 2896 2886
3023 3025 3026 3029 3028 3029 3030 3031 3032 3033 3033 3032 3031 3029 3027 3024 3022 3020 3017 3014 3011 3008 3005 3002 2998 2993 2988 2983 2979 2973 2969 2965 2960 2955 2949 2943 2937 2930 2922 2912 2903 2894 2886 2877
3021 3021 3021 3022 3024 3025 3025 3026 3027 3027 3027 3026 3024 3022 3020 3018 3016 3012 3009 3006 3004 3001 2997 2993 2989 2984 2979 2976 2972 2967 2962 2957 2952 2947 2941 2934 2927 2918 2909 2903 2895 2886 2879 2868
3015 3014 3016 3017 3018 3021 3022 3022 3022 3021 3020 3019 3017 3016 3014 3011 3008 3005 3003 2999 2996 2992 2989 2985 2981 2976 2973 2970 2967 2961 2955 2950 2944 2937 2931 2923 2914 2907 2900 2891 2884 2880 2869 2863
Wind_Speed
35 45 43 42 36 29 20 19 17 13 8 16 15 19 15 12 15 17 23 20 19 19 20 17 16 13 8 10 10 11 12 12 12 13 13 15 16 17 18 20 22 24 27 30
37 44 44 41 35 32 26 23 19 11 8 12 14 16 17 20 20 17 13 16 17 15 12 14 11 9 10 12 13 13 13 13 12 11 13 14 16 17 18 20 20 22 23 25
43 25 39 36 37 35 26 28 23 19 11 14 20 28 26 27 22 17 14 14 14 14 15 10 9 10 11 12 12 13 12 12 13 15 17 20 20 20 21 21 23 24 25 27
27 41 38 31 34 30 28 25 20 16 14 13 10 9 19 15 19 16 13 12 12 12 11 10 10 10 10 11 11 14 17 18 19 21 24 25 23 23 23 24 25 27 29 30
25 33 32 28 36 28 26 19 15 15 17 19 21 12 9 15 22 19 15 12 11 11 12 11 10 10 10 12 16 20 21 22 25 28 29 26 24 23 24 25 27 29 31 33
31 25 26 43 23 29 20 14 14 15 16 7 25 19 12 17 13 16 17 14 12 13 13 11 9 8 11 15 18 19 23 26 28 28 26 23 22 23 24 26 27 29 31 34
22 31 30 30 30 24 23 16 2 3 3 6 6 12 26 7 9 6 12 11 10 12 11 10 8 10 14 16 19 23 26 28 29 26 24 24 25 25 25 27 29 31 33 35
20 18 31 25 31 29 26 24 9 6 4 4 7 9 8 6 10 14 13 13 11 11 10 9 9 11 14 18 24 27 29 29 26 25 26 26 25 26 28 31 33 36 37 39
20 15 37 21 31 27 28 27 23 7 9 3 6 10 15 12 7 13 18 16 13 10 8 9 10 16 20 25 27 26 27 26 27 27 27 26 27 29 32 35 38 40 43 44
17 12 34 20 25 24 21 25 17 12 3 4 5 9 13 4 6 9 12 14 13 9 9 11 16 20 24 25 25 26 27 28 29 30 30 30 31 32 36 40 42 44 46 47
22 19 24 29 27 31 28 20 20 10 9 3 2 4 3 7 9 3 5 7 8 8 11 16 20 25 25 24 25 26 29 31 31 32 32 33 35 39 44 45 47 49 48 48
22 15 25 27 19 28 29 25 24 14 7 7 3 6 3 1 4 8 5 6 7 12 15 19 24 26 21 22 25 28 31 33 33 34 36 38 40 43 45 49 53 51 48 47
24 10 15 14 21 20 30 30 25 25 15 10 5 4 5 5 3 8 10 7 10 14 20 27 23 18 21 23 28 31 32 33 34 36 38 41 45 48 51 54 52 49 48 46
25 14 18 22 21 27 31 35 32 30 22 18 20 11 5 4 7 11 12 15 19 30 23 16 19 20 19 26 31 34 35 34 37 41 43 48 50 57 55 52 50 48 45 45
14 9 12 18 13 19 27 32 34 32 31 21 20 19 13 11 13 15 21 28 28 15 16 17 18 18 24 31 36 37 36 39 42 44 47 51 60 51 47 47 46 44 43 44
16 9 13 16 17 15 16 19 28 29 28 28 27 26 20 21 16 13 14 14 16 19 19 19 19 24 31 34 36 38 42 43 45 47 50 60 50 46 46 44 42 43 43 44
18 15 16 7 12 10 11 20 21 24 26 25 25 21 17 17 15 15 17 19 21 21 21 22 26 29 32 36 39 41 43 46 49 52 58 49 46 45 43 42 43 44 46 49
14 12 12 5 8 3 9 12 14 14 17 21 20 17 16 15 15 16 18 18 19 23 27 30 33 34 35 37 41 43 44 49 56 55 48 46 45 43 42 43 44 47 50 54
16 15 8 6 8 6 7 12 13 13 12 15 16 17 16 16 16 16 17 22 27 33 35 34 33 33 33 39 43 45 45 54 47 45 44 44 43 42 42 44 47 52 56 59
19 18 15 8 4 5 6 14 14 13 14 18 16 15 14 16 15 21 29 33 33 29 28 30 32 32 36 40 45 49 48 45 41 40 41 41 41 42 45 49 52 56 60 61
20 19 19 16 7 6 11 13 12 9 9 13 15 14 14 19 27 34 34 34 31 33 31 30 30 33 39 44 46 46 46 40 37 38 38 39 41 45 49 53 57 59 60 59
10 10 11 13 8 8 12 15 15 13 12 11 12 16 24 30 34 33 32 32 30 29 30 32 34 38 41 43 42 43 38 36 37 38 39 41 45 49 53 56 57 56 55 54
10 12 8 9 7 9 7 14 14 16 16 19 24 29 33 36 33 33 31 31 31 31 30 31 35 37 37 37 35 33 34 36 37 38 41 45 49 52 54 55 54 54 53 53
15 15 18 17 17 15 14 15 17 20 22 27 31 34 34 32 31 31 31 32 31 30 32 33 34 35 34 32 32 34 36 37 39 42 45 49 51 53 54 52 52 52 52 54
17 17 21 24 23 16 18 19 21 24 28 31 32 30 30 30 31 32 33 32 32 33 33 33 33 32 32 31 32 35 38 40 42 45 47 49 53 53 52 51 52 53 53 53
23 27 24 22 17 19 24 27 28 28 26 28 29 29 29 30 32 33 33 33 33 32 31 30 30 30 30 31 33 37 39 42 45 47 49 52 54 53 54 55 55 51 51 49
Wind_Direction
190 195 204 210 207 221 227 230 252 260 290 268 277 269 256 259 256 254 247 256 264 279 282 282 288 288 278 283 283 285 289 295 301 305 308 308 311 310 309 305 298 288 280 278
195 208 212 208 218 223 229 228 241 271 313 290 278 272 268 267 270 259 258 255 272 270 271 277 273 270 279 288 297 305 309 313 318 326 331 329 327 325 321 315 311 305 299 290
201 202 199 211 213 225 221 232 241 259 301 283 280 286 270 259 263 244 255 269 265 261 272 260 255 268 283 298 307 310 314 316 320 326 333 333 327 316 310 306 304 301 298 293
208 204 201 205 213 213 226 232 241 254 287 287 291 288 291 264 238 236 250 246 248 255 241 234 252 272 295 310 317 326 328 328 327 327 327 327 321 313 307 305 301 298 296 294
193 200 211 213 214 211 220 228 241 258 264 281 270 278 277 244 233 231 236 242 239 232 232 245 270 296 314 328 333 332 330 326 323 321 323 324 321 313 306 300 297 297 297 297
205 198 212 212 200 209 218 235 230 247 267 267 267 238 271 248 250 229 230 232 230 228 239 261 282 306 322 325 324 326 322 321 323 327 329 327 322 315 309 305 301 298 298 297
194 207 206 202 217 199 207 204 215 251 237 228 270 218 233 261 293 256 228 227 233 234 248 268 293 311 313 319 324 323 324 327 330 328 329 327 321 314 310 308 307 305 302 300
178 190 191 203 204 200 204 206 191 203 208 257 213 237 248 247 230 214 228 224 239 243 253 272 288 302 317 323 324 326 328 328 327 329 329 324 319 314 311 310 309 308 307 306
177 186 194 199 196 205 197 208 221 288 286 281 228 257 263 262 247 223 221 223 233 242 258 271 284 306 319 325 327 329 328 329 328 326 324 320 316 312 310 311 311 311 310 309
180 148 189 186 199 207 216 217 213 222 244 248 266 265 245 291 239 225 218 224 226 245 262 271 294 310 320 322 324 325 326 326 325 324 322 317 313 313 315 315 314 312 310 309
188 190 180 200 203 205 203 207 209 213 235 201 296 271 266 283 252 206 207 222 231 260 265 278 298 312 317 318 322 323 324 325 323 321 320 317 313 312 312 312 312 312 312 311
177 191 174 193 205 210 217 220 215 215 219 223 246 288 259 354 152 159 206 212 253 263 268 285 300 308 309 311 316 326 327 324 322 321 317 313 312 310 309 309 312 313 311 310
185 195 159 183 213 213 218 218 223 224 239 227 183 266 267 264 269 203 199 239 260 268 281 292 298 302 309 309 317 323 324 321 319 317 313 313 312 311 309 309 312 312 312 311
189 189 197 195 211 214 213 221 226 233 236 236 236 254 274 261 232 198 215 247 268 291 295 294 303 310 299 312 321 322 319 316 311 311 315 316 315 314 311 312 312 312 311 310
190 204 197 203 203 213 226 230 227 231 235 234 258 255 250 239 243 248 260 268 284 278 290 304 310 303 304 311 313 315 311 308 312 311 311 312 313 312 311 310 310 309 309 309
212 201 194 188 196 208 218 224 226 233 237 242 249 260 277 272 256 254 263 270 275 285 295 298 299 303 306 310 311 309 307 305 307 305 307 313 311 309 309 309 308 308 309 311
209 212 198 200 207 220 250 226 225 231 238 246 251 264 246 250 255 267 277 286 291 294 296 301 308 307 305 304 303 304 306 303 299 309 314 311 309 309 308 307 307 309 310 312
203 211 199 212 189 204 228 213 217 224 231 231 235 231 242 256 270 283 294 299 302 306 311 311 308 304 300 299 295 296 300 301 307 309 309 308 309 309 307 306 307 310 313 315
200 216 206 207 207 262 233 219 216 204 201 207 223 244 260 270 277 286 296 301 301 303 302 301 300 301 293 290 294 295 299 304 307 308 308 308 307 305 304 307 311 313 315 316
214 221 224 207 206 220 206 194 193 211 233 236 239 246 264 279 281 291 295 296 298 300 303 306 304 297 292 294 296 297 302 308 308 308 306 306 307 308 310 312 314 316 317 317
206 215 220 220 226 245 221 211 214 217 231 238 245 260 274 283 291 297 301 306 305 305 305 302 300 298 295 297 301 304 307 306 307 308 309 310 311 312 313 315 317 317 316 316
211 204 209 213 218 251 226 221 223 240 239 241 250 268 280 290 302 307 306 306 308 309 308 307 301 300 300 301 303 304 305 308 308 310 312 313 313 314 316 316 316 316 316 317
212 216 210 206 220 228 223 225 238 244 253 263 279 291 299 303 306 309 308 308 310 309 306 302 303 305 305 306 306 307 306 308 311 313 314 314 314 315 316 316 317 318 319 318
238 228 229 230 242 243 248 245 246 256 269 279 286 293 298 301 304 305 307 309 309 308 306 305 304 306 305 308 309 311 312 311 313 314 313 313 313 315 317 319 320 320 319 318
254 247 241 243 245 247 249 262 268 270 281 285 288 293 299 301 301 305 307 306 306 306 304 304 305 306 307 310 311 309 309 311 312 311 311 312 315 319 321 321 321 319 319 319
261 250 246 253 251 249 261 265 270 274 278 286 291 292 295 304 306 304 301 301 304 304 302 303 304 305 306 308 307 306 308 310 312 312 314 317 321 322 320 319 317 318 317 318